Change the Weather History Date:

Saturday, November 17, 2012

  Actual Average Record
Temperature  
Mean Temperature 62 °F -  
Max Temperature 69 °F 65 °F 75 °F (2000)
Min Temperature 54 °F 46 °F 41 °F (2007)
Degree Days  
Heating Degree Days 4    
Growing Degree Days 12 (Base 50)    
Moisture  
Dew Point 60 °F    
Average Humidity 97    
Maximum Humidity 100    
Minimum Humidity 85    
Precipitation  
Precipitation 0.01 in 0.08 in - ()
Sea Level Pressure  
Sea Level Pressure 29.96 in    
Wind  
Wind Speed 5 mph ()    
Max Wind Speed 13 mph    
Max Gust Speed -    
Visibility 5.0 miles    
Events Rain    
Averages and records for this station are not official NWS values.
T = Trace of Precipitation, MM = Missing Value Source: Averaged Metar Reports

Daily Weather History Graph

Daily Weather History Graph

Search for Another Location

Airport or City:

Trip Planner

Search our weather history database for the weather conditions in past years. The results will help you decide how hot, cold, wet, or windy it might be!

Date:

Astronomy

Nov. 17, 2012 Rise Set
Actual Time 6:42 AM CET 4:48 PM CET
Civil Twilight 6:14 AM CET 5:16 PM CET
Nautical Twilight 5:42 AM CET 5:47 PM CET
Astronomical Twilight 5:11 AM CET 6:18 PM CET
Moon 10:12 AM CET (11/17) 8:37 PM CET (11/17)
Length of Visible Light 11h 02m
Length of Day
10h 06m
Waxing Crescent, 18% of the Moon is Illuminated
Nov 17
Waxing Crescent
Nov 20
First Quarter
Nov 28
Full
Dec 6
Last Quarter
Dec 13
New

Hourly Weather History & Observations

Time (CET) Temp. Dew Point Humidity Pressure Visibility Wind Dir Wind Speed Gust Speed Precip Events Conditions
12:27 AM 59.0 °F 59.0 °F 100% 29.98 in 1.6 mi SSW 4.6 mph - N/A Rain Light Rain
12:55 AM 57.2 °F 57.2 °F 100% 29.98 in 1.2 mi WSW 6.9 mph - N/A Rain Rain
1:00 AM 58 °F 57 °F 97% 29.98 in 1 mi WSW 6.9 mph - - Rain Rain
1:55 AM 57.2 °F 57.2 °F 100% 29.98 in 3.1 mi WNW 6.9 mph - N/A Rain Light Rain
2:55 AM 57.2 °F 57.2 °F 100% 29.98 in 4.3 mi WNW 6.9 mph - N/A   Mostly Cloudy
3:55 AM 57.2 °F 57.2 °F 100% 29.98 in 5.0 mi WNW 6.9 mph - N/A   Mostly Cloudy
4:00 AM 58 °F 57 °F 95% 29.99 in 5 mi WNW 6.9 mph - -   Mist
4:55 AM 57.2 °F 57.2 °F 100% 29.95 in 5.0 mi NW 6.9 mph - N/A   Mostly Cloudy
5:55 AM 57.2 °F 57.2 °F 100% 29.98 in 5.0 mi WNW 4.6 mph - N/A   Scattered Clouds
6:55 AM 55.4 °F 53.6 °F 94% 29.98 in 5.0 mi West 4.6 mph - N/A   Scattered Clouds
7:00 AM 55 °F 54 °F 96% 29.98 in 5 mi West 4.6 mph - -   Mist
7:55 AM 57.2 °F 57.2 °F 100% 29.98 in 5.0 mi West 2.3 mph - N/A   Scattered Clouds
8:55 AM 59.0 °F 59.0 °F 100% 29.98 in 5.0 mi NW 4.6 mph - N/A   Scattered Clouds
9:55 AM 62.6 °F 62.6 °F 100% 29.98 in 6.2 mi WNW 3.5 mph - N/A   Scattered Clouds
10:00 AM 63 °F 63 °F 98% 29.99 in 6 mi WNW 3.5 mph - -   Scattered Clouds
10:55 AM 66.2 °F 62.6 °F 88% 29.98 in 6.2 mi East 2.3 mph - N/A   Scattered Clouds
11:55 AM 68.0 °F 64.4 °F 88% 29.98 in 6.2 mi SSW 3.5 mph - N/A   Mostly Cloudy
12:55 PM 68.0 °F 64.4 °F 88% 29.95 in 6.2 mi East 9.2 mph - N/A   Mostly Cloudy
1:00 PM 68 °F 65 °F 85% 29.96 in 6 mi East 9.2 mph - -   Mostly Cloudy
1:55 PM 68.0 °F 64.4 °F 88% 29.95 in 6.2 mi East 10.4 mph - N/A   Mostly Cloudy
2:55 PM 68.0 °F 64.4 °F 88% 29.92 in 6.2 mi East 12.7 mph - N/A   Mostly Cloudy
3:55 PM 64.4 °F 64.4 °F 100% 29.92 in 3.7 mi East 9.2 mph - N/A   Mostly Cloudy
4:00 PM 65 °F 65 °F 99% 29.94 in 4 mi East 9.2 mph - -   Mist
4:55 PM 62.6 °F 62.6 °F 100% 29.92 in 3.7 mi East 8.1 mph - N/A Rain Light Rain
5:55 PM 60.8 °F 60.8 °F 100% 29.92 in 5.0 mi East 5.8 mph - N/A   Mostly Cloudy
6:55 PM 59.0 °F 59.0 °F 100% 29.95 in 6.2 mi Calm Calm - N/A   Scattered Clouds
7:00 PM 60 °F 60 °F 99% 29.96 in 6 mi Calm Calm - -   Partly Cloudy
7:55 PM 59.0 °F 59.0 °F 100% 29.95 in 6.2 mi Calm Calm - N/A   Scattered Clouds
8:55 PM 59.0 °F 59.0 °F 100% 29.95 in 6.2 mi West 3.5 mph - N/A   Scattered Clouds
9:55 PM 59.0 °F 59.0 °F 100% 29.95 in 6.2 mi WNW 2.3 mph - N/A   Scattered Clouds
10:00 PM 59 °F 59 °F 98% 29.96 in 6 mi WNW 2.3 mph - -   Partly Cloudy
10:55 PM 59.0 °F 59.0 °F 100% 29.95 in 6.2 mi NW 2.3 mph - N/A   Mostly Cloudy
11:55 PM 59.0 °F 59.0 °F 100% 29.95 in 6.2 mi WNW 4.6 mph - N/A   Scattered Clouds